Weather in Pohrebniaky

Ukraine / Poltava Region     49°35′07″N   32°47′43″E
temp.,
°C
wind,
m/s
gust,
m/s
humid.,
%
clouds,
%
prec.,
mm/h
press.,
hPa
HPBL,
m
18 january, tue
tue1823:000wnw81385100 1.3 997958
02:00−2wnw71380100 1.3 999671
05:00−2wnw61397100 0.4 999775
08:00−4nw101683100 1.1 10051236
11:00−4nw101479100 0.1 10081292
14:00−3nnw91373100 0.3 10101287
17:00−4nnw91477100 0.1 10131189
20:00−5nnw91583100 0.1 10151142
19 january, wed
wed1923:00−5nnw91486100 0.2 1018989
02:00−6nnw81386100 0.3 1020809
05:00−7nnw71385100 0.0 1022639
08:00−8nnw6128764 0.0 1024503
11:00−6n687710 0.0 1024491
14:00−4nnw467347 0.0 1024562
17:00−7wnw22905 0.0 102430
20:00−8w22925 0.0 102217
20 january, thu
thu2023:00
02:00−8s359032 0.0 102080
05:00−8s389257 0.0 1018143
08:00
11:00−4s61179100 0.0 1016366
14:00−2s61274100 0.0 1013523
17:00−3sse61284100 0.0 1012326
20:00−4sse71586100 0.0 1010438
21 january, fri
fri2123:00−2s61289100 0.0 1008438
02:00−2ssw5109697 1.3 1007430
05:00−4ssw499196 0.0 1006218
08:00−2w5995100 0.9 1007573
11:00−2wsw711845 0.1 1009735
14:00−1wsw711795 0.1 1009860
17:00−3sw512845 0.0 1010303
20:00−4wsw512855 0.0 1011367
22 january, sat
sat2223:00−5wsw5118936 0.0 1012344
02:00−5sw5119069 0.0 1012292
05:00−6sw4109270 0.0 1012257
08:00−6sw499368 0.0 1013210
11:00−4sw478510 0.0 1014365
14:00−2wsw368180 0.0 1015625
17:00−3sw2588100 0.0 1016111
20:00−4sw3589100 0.1 101894